Location: Vihti�l�
(61.3833°N, 23.0667°E)
Time: 03:33:23
(UTC+00:00)

Cosmos 1484 Rocket - Pass Details

Date: 29 November 2020
Orbit: 506 x 558 km, 97.4° (Epoch: 19 January)

Event Time Altitude Azimuth Distance (km) Brightness Sun altitude
Rises 04:55:17 0° 12° (NNE) 2,631 6.2 -14.3°
Reaches altitude 10° 04:57:41 10° 357° (N) 1,740 5.1 -14.0°
Enters shadow 05:00:25 22° 310° (NW) 1,154 3.9 -13.7°
